Location: Newark
(39.4242°N, 80.8531°W)
Time: 11:11:09
(UTC+00:00)

N. Korean satellite - Visible Passes

Search period start: 26 January 2020 00:00
Search period end: 05 February 2020 00:00
Orbit: 454 x 507 km, 97.2° (Epoch: 25 January)

Date Brightness Start Highest point End Pass type
(mag) Time Alt. Az. Time Alt. Az. Time Alt. Az.
26 Jan 10.1 10:06:15 10° ENE 10:07:18 11° E 10:08:20 10° ESE visible
26 Jan 6.9 11:37:27 10° N 11:40:51 40° WNW 11:44:16 10° SW visible
27 Jan 6.5 11:11:48 10° NNE 11:15:24 87° E 11:19:03 10° SSW visible
27 Jan 9.8 23:20:54 10° SW 23:23:03 16° W 23:25:12 10° NW visible
28 Jan 8.1 10:46:30 10° NNE 10:49:53 38° E 10:53:18 10° SSE visible
29 Jan 9.5 10:21:43 10° NE 10:24:17 18° E 10:26:52 10° SE visible
29 Jan 7.6 11:54:37 10° NNW 11:57:38 25° WNW 12:00:40 10° SW visible
30 Jan 6.7 11:28:42 10° N 11:32:14 53° WNW 11:35:49 10° SSW visible
31 Jan 7.0 11:03:09 10° NNE 11:06:46 66° E 11:10:25 10° S visible
31 Jan 9.6 23:11:44 10° SW 23:14:19 20° W 23:16:56 10° NW visible
01 Feb 8.6 10:37:59 10° NE 10:41:13 29° E 10:44:29 10° SSE visible
02 Feb 9.8 10:13:29 10° ENE 10:15:35 15° E 10:17:41 10° SE visible
02 Feb 7.3 11:45:45 10° N 11:49:02 32° WNW 11:52:20 10° SW visible
03 Feb 6.5 11:19:58 10° N 11:23:37 71° WNW 11:27:17 10° SSW visible
03 Feb 10.1 23:29:47 10° WSW 23:31:16 12° W 23:32:46 10° WNW visible
04 Feb 7.5 10:54:32 10° NNE 10:58:07 50° E 11:01:43 10° S visible
